Brunswick, NC

7:16 AM EDT on September 28, 2016 (GMT -0400)
Columbus County Municipal

Weather History for KCPC - November, 2013

Change the Weather History Date:

Friday, November 29, 2013

  Actual Average (KLBT) Record (KLBT)
Temperature  
Mean Temperature 40 °F 50 °F  
Max Temperature 54 °F 62 °F 77 °F (2001)
Min Temperature 28 °F 38 °F 21 °F (2002)
Degree Days  
Heating Degree Days 24 15  
Month to date heating degree days 320  
Since 1 July heating degree days 452  
Cooling Degree Days 0 0  
Month to date cooling degree days 10  
Year to date cooling degree days 1904  
Moisture  
Dew Point 28 °F    
Average Humidity 65    
Maximum Humidity 96    
Minimum Humidity 37    
Precipitation  
Precipitation 0.00 in 0.10 in 1.43 in (2005)
Month to date precipitation 2.78  
Year to date precipitation 40.54  
Sea Level Pressure  
Sea Level Pressure 30.52 in    
Wind  
Wind Speed 2 mph (NNE)    
Max Wind Speed 10 mph    
Max Gust Speed -    
Visibility 10 miles    
Events      
T = Trace of Precipitation, MM = Missing Value Source: NWS Daily Summary

Daily Weather History Graph

Daily Weather History Graph

Search for Another Location

Airport or City:

Trip Planner

Search our weather history database for the weather conditions in past years. The results will help you decide how hot, cold, wet, or windy it might be!

Date:

Astronomy

Nov. 29, 2013 Rise Set
Actual Time 7:01 AM EST 5:05 PM EST
Civil Twilight 6:33 AM EST 5:32 PM EST
Nautical Twilight 6:02 AM EST 6:03 PM EST
Astronomical Twilight 5:32 AM EST 6:33 PM EST
Moon 3:13 AM EST (11/29) 2:41 PM EST (11/29)
Length of Visible Light 10h 58m
Length of Day
10h 04m
Waning Crescent, 14% of the Moon is Illuminated
Nov 29
Waning Crescent
Dec 2
New
Dec 9
First Quarter
Dec 17
Full
Dec 25
Last Quarter

Hourly Weather History & Observations

Time (EST) Temp. Windchill Dew Point Humidity Pressure Visibility Wind Dir Wind Speed Gust Speed Precip Events Conditions
12:15 AM 30.0 °F - 28.2 °F 93% 30.49 in 10.0 mi Calm Calm - N/A   Clear
12:35 AM 30.0 °F - 28.4 °F 94% 30.48 in 10.0 mi Calm Calm - N/A   Clear
12:55 AM 29.3 °F - 27.5 °F 93% 30.48 in 10.0 mi Calm Calm - N/A   Clear
1:15 AM 29.5 °F - 28.0 °F 94% 30.48 in 10.0 mi Calm Calm - N/A   Clear
1:35 AM 29.8 °F - 28.2 °F 94% 30.48 in 10.0 mi Calm Calm - N/A   Clear
1:55 AM 30.0 °F - 28.6 °F 94% 30.48 in 10.0 mi Calm Calm - N/A   Clear
2:15 AM 29.1 °F - 27.1 °F 92% 30.48 in 10.0 mi Calm Calm - N/A   Clear
2:35 AM 29.7 °F - 27.9 °F 93% 30.48 in 10.0 mi Calm Calm - N/A   Clear
2:55 AM 29.1 °F - 27.3 °F 93% 30.48 in 10.0 mi Calm Calm - N/A   Clear
3:15 AM 30.0 °F - 27.9 °F 92% 30.49 in 10.0 mi Calm Calm - N/A   Clear
3:35 AM 29.1 °F - 27.5 °F 94% 30.48 in 10.0 mi Calm Calm - N/A   Clear
3:55 AM 28.8 °F - 27.7 °F 96% 30.48 in 10.0 mi Calm Calm - N/A   Clear
4:15 AM 28.6 °F - 27.3 °F 95% 30.48 in 10.0 mi Calm Calm - N/A   Clear
4:35 AM 28.4 °F - 26.6 °F 93% 30.48 in 10.0 mi Calm Calm - N/A   Clear
4:55 AM 29.1 °F - 27.9 °F 95% 30.48 in 10.0 mi Calm Calm - N/A   Clear
5:15 AM 29.5 °F - 27.5 °F 92% 30.49 in 10.0 mi Calm Calm - N/A   Clear
5:35 AM 29.1 °F - 27.3 °F 93% 30.49 in 10.0 mi Calm Calm - N/A   Clear
5:55 AM 28.0 °F - 26.6 °F 94% 30.49 in 10.0 mi Calm Calm - N/A   Clear
6:15 AM 28.0 °F - 26.4 °F 94% 30.50 in 10.0 mi Calm Calm - N/A   Clear
6:35 AM 28.9 °F - 26.8 °F 92% 30.51 in 10.0 mi Calm Calm - N/A   Clear
6:55 AM 29.3 °F - 27.5 °F 93% 30.51 in 10.0 mi Calm Calm - N/A   Clear
7:15 AM 28.0 °F - 26.4 °F 94% 30.52 in 10.0 mi Calm Calm - N/A   Clear
7:35 AM 28.4 °F - 26.2 °F 92% 30.52 in 10.0 mi Calm Calm - N/A   Clear
7:55 AM 30.0 °F - 27.1 °F 89% 30.53 in 10.0 mi Calm Calm - N/A   Clear
8:15 AM 32.0 °F - 29.1 °F 89% 30.54 in 10.0 mi Calm Calm - N/A   Clear
8:35 AM 34.7 °F - 30.0 °F 83% 30.55 in 10.0 mi Calm Calm - N/A   Clear
8:55 AM 37.0 °F - 29.1 °F 73% 30.55 in 10.0 mi Calm Calm - N/A   Clear
9:15 AM 38.7 °F 36.3 °F 27.7 °F 65% 30.55 in 10.0 mi NNE 3.5 mph - N/A   Clear
9:35 AM 41.2 °F 38.2 °F 28.8 °F 61% 30.55 in 10.0 mi NE 4.6 mph - N/A   Clear
9:55 AM 42.8 °F 39.3 °F 28.0 °F 56% 30.56 in 10.0 mi NE 5.8 mph - N/A   Clear
10:15 AM 44.4 °F 41.2 °F 27.5 °F 52% 30.55 in 10.0 mi NE 5.8 mph - N/A   Clear
10:35 AM 45.9 °F 42.9 °F 27.3 °F 48% 30.55 in 10.0 mi NNE 5.8 mph - N/A   Clear
10:55 AM 47.7 °F - 27.7 °F 46% 30.55 in 10.0 mi North 4.6 mph - N/A   Clear
11:15 AM 48.6 °F - 27.1 °F 43% 30.54 in 10.0 mi NNE 8.1 mph - N/A   Clear
11:35 AM 49.5 °F - 26.8 °F 41% 30.53 in 10.0 mi NNE 8.1 mph - N/A   Clear
11:55 AM 50.7 °F - 27.5 °F 41% 30.52 in 10.0 mi NE 5.8 mph - N/A   Clear
12:15 PM 50.5 °F - 26.2 °F 39% 30.52 in 10.0 mi NNE 5.8 mph - N/A   Clear
12:35 PM 50.0 °F - 26.8 °F 41% 30.52 in 10.0 mi NE 5.8 mph - N/A   Clear
12:55 PM 50.0 °F - 27.3 °F 41% 30.51 in 10.0 mi NNE 3.5 mph - N/A   Clear
1:15 PM 50.9 °F - 26.6 °F 39% 30.50 in 10.0 mi NNE 6.9 mph - N/A   Clear
1:35 PM 52.3 °F - 26.6 °F 37% 30.50 in 10.0 mi NNE 5.8 mph - N/A   Clear
1:55 PM 53.6 °F - 27.7 °F 37% 30.50 in 10.0 mi North 3.5 mph - N/A   Clear
2:15 PM 53.8 °F - 28.8 °F 38% 30.49 in 10.0 mi ENE 9.2 mph - N/A   Clear
2:35 PM 53.6 °F - 27.9 °F 37% 30.49 in 10.0 mi NNE 6.9 mph - N/A   Clear
2:55 PM 53.8 °F - 27.9 °F 37% 30.49 in 10.0 mi NNE 3.5 mph - N/A   Clear
3:15 PM 53.4 °F - 28.4 °F 38% 30.49 in 10.0 mi NE 5.8 mph - N/A   Clear
3:35 PM 53.6 °F - 27.9 °F 37% 30.50 in 10.0 mi NNE 4.6 mph - N/A   Clear
3:55 PM 52.9 °F - 27.1 °F 37% 30.50 in 10.0 mi NNE 5.8 mph - N/A   Clear
4:15 PM 52.0 °F - 26.1 °F 37% 30.50 in 10.0 mi North 3.5 mph - N/A   Clear
4:35 PM 50.9 °F - 25.5 °F 37% 30.50 in 10.0 mi NNE 3.5 mph - N/A   Clear
4:55 PM 49.6 °F - 26.1 °F 40% 30.50 in 10.0 mi North 3.5 mph - N/A   Clear
5:15 PM 48.0 °F - 27.9 °F 46% 30.50 in 10.0 mi NNE 3.5 mph - N/A   Clear
5:35 PM 47.3 °F - 28.2 °F 48% 30.51 in 10.0 mi Calm Calm - N/A   Clear
5:55 PM 45.5 °F - 30.4 °F 56% 30.52 in 10.0 mi Calm Calm - N/A   Clear
6:15 PM 45.7 °F 44.4 °F 27.5 °F 49% 30.52 in 10.0 mi NNE 3.5 mph - N/A   Clear
6:35 PM 45.0 °F 43.5 °F 27.9 °F 51% 30.52 in 10.0 mi NNE 3.5 mph - N/A   Clear
6:55 PM 44.8 °F 42.4 °F 27.3 °F 50% 30.53 in 10.0 mi NNE 4.6 mph - N/A   Clear
7:15 PM 43.9 °F 41.3 °F 28.0 °F 54% 30.54 in 10.0 mi North 4.6 mph - N/A   Clear
7:35 PM 43.9 °F 40.5 °F 27.3 °F 52% 30.54 in 10.0 mi NNE 5.8 mph - N/A   Clear
7:55 PM 43.2 °F 40.5 °F 27.3 °F 54% 30.54 in 10.0 mi NNE 4.6 mph - N/A   Clear
8:15 PM 42.8 °F 41.1 °F 27.3 °F 54% 30.54 in 10.0 mi NNE 3.5 mph - N/A   Clear
8:35 PM 42.6 °F 39.9 °F 27.3 °F 55% 30.55 in 10.0 mi NNE 4.6 mph - N/A   Clear
8:55 PM 41.9 °F 38.2 °F 27.5 °F 57% 30.56 in 10.0 mi NNE 5.8 mph - N/A   Clear
9:15 PM 41.0 °F 37.1 °F 27.9 °F 60% 30.56 in 10.0 mi NNE 5.8 mph - N/A   Clear
9:35 PM 41.2 °F 36.6 °F 27.9 °F 59% 30.57 in 10.0 mi NNE 6.9 mph - N/A   Clear
9:55 PM 41.0 °F 38.0 °F 27.7 °F 59% 30.57 in 10.0 mi NE 4.6 mph - N/A   Clear
10:15 PM 40.5 °F 36.5 °F 28.0 °F 61% 30.58 in 10.0 mi NNE 5.8 mph - N/A   Clear
10:35 PM 40.5 °F 36.5 °F 28.0 °F 61% 30.57 in 10.0 mi NNE 5.8 mph - N/A   Clear
10:55 PM 40.3 °F 33.9 °F 28.4 °F 63% 30.57 in 10.0 mi NE 10.4 mph - N/A   Clear
11:15 PM 39.2 °F 33.6 °F 28.8 °F 66% 30.57 in 10.0 mi NE 8.1 mph - N/A   Clear
11:35 PM 38.7 °F 32.9 °F 28.8 °F 68% 30.57 in 10.0 mi NNE 8.1 mph - N/A   Clear
11:55 PM 38.1 °F 33.7 °F 29.1 °F 70% 30.57 in 10.0 mi NNE 5.8 mph - N/A   Clear